Phoenix, AZ

10:56 PM MST on September 30, 2016 (GMT -0700)
Phoenix Sky Harbor International

Weather History for KPHX - February, 2014

Change the Weather History Date:

Thursday, February 13, 2014

  Actual Average Record
Temperature  
Mean Temperature 67 °F 59 °F  
Max Temperature 82 °F 70 °F 88 °F (1957)
Min Temperature 52 °F 48 °F 27 °F (1948)
Degree Days  
Heating Degree Days 0 6  
Month to date heating degree days 65 86  
Since 1 July heating degree days 534 756  
Cooling Degree Days 2 0  
Month to date cooling degree days 2 0  
Year to date cooling degree days 6 2  
Growing Degree Days 17 (Base 50)    
Moisture  
Dew Point 28 °F    
Average Humidity 29    
Maximum Humidity 45    
Minimum Humidity 13    
Precipitation  
Precipitation 0.00 in 0.03 in 1.42 in (2003)
Month to date precipitation 0.00 0.37  
Year to date precipitation 0.00 1.28  
Snow  
Snow 0.00 in - - ()
Month to date snowfall 0.0  
Year to date snowfall 0.0  
Since 1 July snowfall 0.0  
Snow Depth 0.00 in    
Sea Level Pressure  
Sea Level Pressure 29.98 in    
Wind  
Wind Speed 6 mph (ESE)    
Max Wind Speed 10 mph    
Max Gust Speed 12 mph    
Visibility 10 miles    
Events      
T = Trace of Precipitation, MM = Missing Value Source: NWS Daily Summary

Daily Weather History Graph

Daily Weather History Graph

Search for Another Location

Airport or City:

Trip Planner

Search our weather history database for the weather conditions in past years. The results will help you decide how hot, cold, wet, or windy it might be!

Date:

Astronomy

Feb. 13, 2014 Rise Set
Actual Time 7:13 AM MST 6:11 PM MST
Civil Twilight 6:48 AM MST 6:36 PM MST
Nautical Twilight 6:19 AM MST 7:05 PM MST
Astronomical Twilight 5:50 AM MST 7:34 PM MST
Moon 5:22 PM MST (2/13) 6:08 AM MST (2/13)
Length of Visible Light 11h 48m
Length of Day
10h 57m
Waxing Gibbous, 99% of the Moon is Illuminated
Feb 13
Waxing Gibbous
Feb 14
Full
Feb 22
Last Quarter
Mar 1
New
Mar 8
First Quarter

Hourly Weather History & Observations

Time (MST) Temp. Dew Point Humidity Pressure Visibility Wind Dir Wind Speed Gust Speed Precip Events Conditions
12:51 AM 60.1 °F 28.9 °F 31% 30.00 in 10.0 mi East 4.6 mph - N/A   Partly Cloudy
1:51 AM 59.0 °F 28.0 °F 31% 30.01 in 10.0 mi ESE 5.8 mph - N/A   Partly Cloudy
2:51 AM 55.9 °F 28.9 °F 36% 30.00 in 10.0 mi East 6.9 mph - N/A   Partly Cloudy
3:51 AM 55.0 °F 30.9 °F 40% 29.99 in 10.0 mi East 6.9 mph - N/A   Clear
4:51 AM 53.1 °F 32.0 °F 45% 30.00 in 10.0 mi East 9.2 mph - N/A   Clear
5:51 AM 53.1 °F 28.9 °F 40% 30.01 in 10.0 mi East 6.9 mph - N/A   Clear
6:51 AM 52.0 °F 28.9 °F 41% 30.02 in 10.0 mi East 6.9 mph - N/A   Partly Cloudy
7:51 AM 54.0 °F 28.0 °F 37% 30.04 in 10.0 mi East 6.9 mph - N/A   Partly Cloudy
8:51 AM 59.0 °F 28.9 °F 32% 30.06 in 10.0 mi ESE 6.9 mph - N/A   Partly Cloudy
9:51 AM 64.0 °F 27.0 °F 25% 30.07 in 10.0 mi East 8.1 mph - N/A   Scattered Clouds
10:51 AM 69.1 °F 26.1 °F 20% 30.06 in 10.0 mi ESE 6.9 mph - N/A   Scattered Clouds
11:51 AM 72.0 °F 27.0 °F 19% 30.04 in 10.0 mi SE 6.9 mph - N/A   Mostly Cloudy
12:51 PM 75.9 °F 27.0 °F 16% 29.99 in 10.0 mi SE 6.9 mph - N/A   Mostly Cloudy
1:51 PM 78.1 °F 26.1 °F 15% 29.95 in 10.0 mi ESE 4.6 mph - N/A   Mostly Cloudy
2:51 PM 80.1 °F 25.0 °F 13% 29.93 in 10.0 mi Variable 3.5 mph - N/A   Mostly Cloudy
3:51 PM 80.1 °F 25.0 °F 13% 29.91 in 10.0 mi Calm Calm - N/A   Mostly Cloudy
4:51 PM 80.1 °F 25.0 °F 13% 29.91 in 10.0 mi NNW 4.6 mph - N/A   Mostly Cloudy
5:51 PM 80.1 °F 26.1 °F 14% 29.91 in 10.0 mi WSW 6.9 mph - N/A   Mostly Cloudy
6:51 PM 78.1 °F 24.1 °F 14% 29.92 in 10.0 mi WSW 4.6 mph - N/A   Mostly Cloudy
7:51 PM 73.0 °F 28.0 °F 19% 29.93 in 10.0 mi Calm Calm - N/A   Mostly Cloudy
8:51 PM 68.0 °F 30.0 °F 24% 29.93 in 10.0 mi Calm Calm - N/A   Clear
9:51 PM 66.0 °F 32.0 °F 28% 29.93 in 10.0 mi East 5.8 mph - N/A   Clear
10:51 PM 64.0 °F 33.1 °F 31% 29.96 in 10.0 mi East 5.8 mph - N/A   Partly Cloudy
11:51 PM 63.0 °F 30.9 °F 30% 29.96 in 10.0 mi SE 5.8 mph - N/A   Partly Cloudy